Terminal Aerodrome Forecast
Issued by NWS

Home | Current Version | Previous Version | Text Only | Print | Product List | Glossary On
Versions: 1 2 3 4 5 6 7 8 9 10 11 12 13 14 15 16
551
FTUS46 KSEW 192105 AAA
TAFBLI
TAF AMD
KBLI 192105Z 1921/2018 15013G22KT P6SM VCSH BKN035 OVC070
      TEMPO 1921/1924 -SHRA
     FM200000 15020G30KT P6SM -SHRA BKN030 OVC050
     FM200600 15013KT P6SM BKN035 OVC050 PROB30 2006/2012 -SHRA=

USA.gov is the U.S. government's official web portal to all federal, state and local government web resources and services.